Regional Weather Roundup
Issued by NWS Goodland, KS

Home | Current Version | Previous Version | Graphics & Text | Print | Product List | Glossary On
Versions: 1 2 3 4 5 6 7 8 9 10 11 12 13 14 15 16 17 18 19 20 21 22 23 24 25 26 27 28 29 30 31 32 33 34 35 36 37 38 39 40 41 42 43 44 45 46 47 48 49 50
000
ASUS43 KGLD 290808
RWRGLD

GOODLAND FORECAST AREA HOURLY WEATHER ROUNDUP
NATIONAL WEATHER SERVICE GOODLAND KS
200 AM MDT TUE JUL 29 2014

...OFFICIAL OBSERVATIONS...

CITY           SKY/WX    TMP DP  RH WIND       PRES   REMARKS
GOODLAND KS    MOCLDY    63  60  90 S6        30.24F
HILL CITY KS   MOCLDY    65  56  72 E8        30.21F
IMPERIAL NEB   MOCLDY    62  57  83 SE9       30.21F
MCCOOK NEB     MOCLDY    64  57  78 E9        30.21F
AKRON CO       PTCLDY    66  57  72 S10       30.25F
BURLINGTON CO  PTCLDY    61  57  87 S8        30.25F
LIMON CO       PTCLDY    59  56  89 SE7       30.30F
$$

...UNOFFICIAL OBSERVATIONS...

CITY           SKY/WX    TMP DP  RH WIND       PRES   REMARKS
COLBY KS       CLEAR     66  61  82 S7        30.23S
LENORA KS        N/A     63  32  31 MISG        N/A
NORTON KS      CLEAR     63  52  67 E10       30.21S
OBERLIN KS     FAIR      64  55  72 SE13G18   30.20F
ST FRANCIS KS  CLOUDY    66  55  68 S9        30.21S
TRIBUNE KS     PTCLDY    63 N/A N/A S7        30.26F
WAKEENEY KS      N/A     65  52  62 MISG        N/A
KIT CARSON CO    N/A     65  58  79 N9          N/A
WRAY CO          N/A     70  59  68 SW6       30.22
$$



USA.gov is the U.S. government's official web portal to all federal, state and local government web resources and services.